Vertical_Velocity
2 -2 -0 -3 -4 -6 0 -1 2 -4 -3 -5 -9 -4 -4 -0 -0 -2 2 2 1 3 -5 -7 4 40 3 1 3 1 2 1 -2 -1 -0 -0 -2 1 -2 -2 -3 -4 -3 -2 -5 -6 -8
0 4 2 6 16 70 25 4 8 9 5 5 1 -2 -0 -5 -2 -1 2 0 1 -2 1 10 -3 -6 3 1 4 4 2 -2 1 -0 -2 -2 0 -1 -3 -0 0 -1 -1 -4 -3 -2 -6
-4 -0 2 3 13 22 -4 43 17 21 23 21 6 -2 -3 -1 1 0 -6 3 4 -2 1 2 -2 11 -6 3 2 0 0 -5 2 -0 -0 -2 -1 -1 -1 1 -1 -1 -5 -3 6 -1 -13
4 5 0 -10 -0 -4 -4 -6 35 22 22 21 5 -1 -0 -2 2 -4 -5 0 -2 2 -4 6 7 1 -13 -2 3 -4 1 -1 2 -1 -1 1 -1 0 -0 0 -0 -2 1 -7 3 -2 -2
-3 1 1 -6 -7 -4 1 4 13 7 22 5 11 -2 -2 -3 -3 0 1 -1 -4 -9 10 -1 9 2 7 -2 4 4 1 1 -1 -1 -0 -3 1 1 -2 -2 -4 -3 -4 -3 -7 2 0
-4 -4 -3 -1 -3 -4 -6 -9 4 -12 1 -3 3 -2 -2 -1 -0 -2 -3 2 -6 19 4 -2 5 -1 -2 -8 -1 -3 1 3 3 -2 -2 1 -1 -0 -2 -2 -7 1 -0 -2 -5 -8 2
-1 2 -0 -7 -1 -6 -7 2 1 2 -0 3 4 -0 -5 -3 -10 -2 -6 5 30 12 39 -5 -0 -5 1 -4 2 -3 7 5 -1 -2 1 -1 -4 -6 3 -1 2 0 -0 -5 -6 5 7
-5 -3 -0 -4 -5 -4 -5 -3 -3 -3 3 2 -8 -2 2 1 -7 3 -14 -7 15 2 6 3 0 1 16 -0 -3 3 3 0 -1 -1 -4 -0 -3 1 1 1 -1 1 -2 -9 -10 4 9
-5 1 -3 -1 -4 -4 -0 -1 -1 -3 -4 -6 -2 -6 -1 -1 -9 -5 5 -7 2 -1 -4 22 21 18 2 -7 6 5 1 0 1 -2 -1 -2 1 -1 -2 1 0 -3 1 -4 -1 2 1
-9 -3 -3 -2 -2 -4 1 1 1 1 -2 -7 -5 2 -1 0 1 7 7 -9 6 2 1 14 25 -1 6 4 3 -1 0 4 2 -1 2 -5 -2 -1 1 -7 4 -2 5 3 -0 4 1
-6 -4 -2 -1 -0 -5 -0 1 -3 1 7 -9 -5 -3 -2 1 6 1 -6 -11 2 1 -3 18 3 5 2 -4 1 -3 4 1 0 -5 2 7 -0 -0 -1 -3 5 -14 3 2 2 -0 15
-3 -7 -4 1 -5 -3 -0 -1 1 -1 -4 -10 -1 -5 2 3 0 1 2 4 -4 -5 3 -1 2 -0 -8 -5 5 -0 -1 -2 1 -0 -0 -4 3 0 -1 2 -1 1 -2 -1 4 8 7
2 -1 -2 1 -2 -2 -3 -2 -1 -5 -7 -9 -4 -8 0 1 1 -5 -10 -3 -2 -4 1 -3 -1 -2 6 4 -3 -1 -1 -1 -1 1 0 2 1 -4 -1 -4 1 2 4 -4 -0 3 -2
0 4 -10 -6 -1 0 -1 0 -0 -0 -2 -1 7 -4 -3 1 2 3 3 3 -2 12 3 2 -2 1 -1 1 2 -1 4 2 0 -1 3 2 -2 -1 -0 -0 -0 4 5 1 1 1 1
-10 -9 -5 -2 -6 -1 2 5 0 -4 -2 -4 -6 -1 -4 -3 -3 -5 -7 -12 4 2 -2 -4 2 1 -2 3 8 0 5 5 -1 -1 -1 6 -3 -1 -0 1 6 4 1 2 1 3 2
1 -1 -6 -13 1 -4 -2 2 0 -1 -1 -6 -6 -4 0 -0 2 3 -12 -14 -4 -1 2 0 2 2 -1 -3 -2 -1 2 -1 -1 1 1 1 -2 0 -1 -1 2 1 -1 1 1 -0 0
0 -2 -2 2 -12 -6 -10 -2 1 -1 1 -1 3 -9 -2 -0 4 0 -18 -4 -3 -2 -3 -1 0 -3 -1 0 -0 -2 -1 3 2 -1 -3 1 -1 1 -0 2 2 -2 -4 -1 4 1 1
-3 0 -3 -4 1 -11 -7 -7 -4 3 2 5 2 -9 -4 -2 -6 -6 -3 -2 1 1 -1 -0 -1 3 1 -1 1 -0 -2 -0 1 2 0 2 2 -3 -4 -3 2 -2 -0 0 4 -4 0
-1 0 2 1 2 -4 -3 -7 -5 -4 1 4 6 -1 0 -2 -7 -3 -2 -2 -3 3 0 2 3 1 2 0 -1 1 -1 1 3 2 2 2 1 -2 -3 6 10 6 3 -0 2 -0 -0
0 -4 0 4 2 6 -1 -1 -7 -6 -3 -3 3 -1 -3 3 -5 -1 -1 1 -4 -2 1 0 1 3 3 1 0 1 1 -0 4 1 -0 2 -1 3 -2 1 3 3 7 8 5 -4 3
2 1 -4 -4 8 4 15 0 -15 -7 -4 -2 -1 0 -2 -2 1 -5 -1 1 1 -5 -7 -3 1 -1 1 -2 1 -1 1 -3 0 1 -0 -1 -2 -1 -1 1 5 2 1 2 -4 2 -7
-0 -2 0 1 -5 -3 -4 6 5 -1 -10 -1 -8 -3 -1 -3 -2 -1 -3 -0 1 -0 -2 -1 -5 -3 2 -5 -2 -1 0 5 1 3 2 -1 -3 0 -1 -2 -0 3 -2 2 -1 1 -1
-0 4 -3 -1 0 -3 -10 2 10 2 -2 -7 -2 -4 -2 -1 -2 -1 -2 -5 2 1 -1 1 1 -4 -4 -1 -4 -1 -1 3 1 -1 -1 0 -0 -1 -2 -1 -1 -4 1 -2 -3 -0 -2
3 1 1 -2 -1 3 -1 -8 -1 -3 -1 -5 0 0 -5 -2 -0 -1 -1 -2 -4 -4 -2 -1 -2 1 1 -3 -3 -5 -5 0 0 -0 -1 -1 0 0 -2 -2 -7 -2 -3 -1 1 -1 -4
2 0 1 0 2 2 4 -7 -8 9 5 -2 -13 -4 2 -3 -3 -2 0 -2 -0 -1 -4 -3 0 1 -1 0 -1 -2 -3 -1 -0 -0 -1 -1 -1 -1 0 -0 -1 -2 -2 -3 2 1 1
1 0 0 1 -3 -2 1 -1 -4 -1 2 -1 -1 -9 -6 4 -5 -3 -1 -0 1 0 1 -0 -4 -2 0 -0 -1 -2 -2 -2 -3 0 3 3 3 1 -0 -0 -1 -0 -1 -1 -5 -7 2
1 1 1 -2 -2 -2 1 3 -4 -14 -12 -0 11 -5 -5 -5 4 -5 -3 -0 -1 2 1 -1 1 0 -2 -3 -1 -1 -2 -2 -2 -3 -4 -5 -4 -2 -0 -1 -2 -0 0 3 2 -1 -3
0 1 0 3 -3 -2 4 4 3 -3 -8 -2 -13 9 -7 -8 -2 5 -1 -4 -1 0 -1 4 2 -2 -1 -0 -1 -1 0 0 -1 -2 -1 -3 -3 -3 0 -1 -6 -2 -2 -2 -3 -2 -2
0 -2 -1 1 -3 -2 7 9 5 3 0 -4 -1 -5 2 -2 -9 -2 1 6 -1 -3 -2 1 2 2 2 0 0 1 1 1 2 -3 -1 -3 -2 -1 -3 -2 -1 -1 0 -1 -1 -1 -1
Height
3087 3082 3075 3068 3061 3054 3048 3042 3036 3032 3028 3026 3025 3025 3025 3024 3022 3020 3021 3022 3022 3024 3026 3033 3034 3032 3035 3040 3046 3048 3048 3050 3053 3054 3054 3056 3056 3057 3056 3057 3058 3055 3056 3055 3055 3055 3054
3084 3077 3070 3061 3053 3043 3033 3028 3024 3020 3018 3015 3014 3015 3015 3015 3015 3014 3013 3014 3016 3019 3022 3026 3028 3026 3031 3037 3040 3044 3045 3046 3048 3050 3051 3052 3053 3053 3053 3054 3054 3054 3051 3050 3050 3049 3046
3080 3073 3064 3054 3046 3036 3028 3016 3012 3010 3007 3007 3005 3006 3006 3006 3007 3008 3008 3009 3009 3012 3017 3020 3022 3024 3030 3034 3034 3037 3042 3044 3046 3048 3048 3049 3049 3050 3049 3050 3049 3048 3046 3046 3046 3046 3041
3075 3066 3055 3045 3036 3026 3015 3007 2998 2997 2998 2998 2998 2999 2998 2998 2999 3001 3002 3003 3004 3007 3011 3016 3018 3023 3027 3031 3031 3035 3038 3041 3044 3045 3046 3046 3047 3047 3046 3047 3046 3045 3044 3042 3043 3042 3040
3070 3059 3046 3035 3025 3013 3002 2997 2991 2991 2991 2991 2992 2993 2994 2993 2993 2993 2994 2998 3001 3003 3006 3012 3016 3021 3025 3026 3029 3033 3035 3038 3040 3042 3042 3042 3044 3044 3044 3043 3044 3042 3040 3040 3038 3038 3037
3064 3053 3041 3032 3021 3010 3000 2995 2991 2989 2989 2989 2989 2988 2989 2989 2988 2988 2990 2993 2997 3002 3003 3006 3013 3021 3022 3026 3027 3031 3032 3035 3038 3038 3040 3041 3041 3040 3040 3042 3041 3040 3039 3037 3036 3035 3033
3060 3051 3041 3030 3022 3012 3006 3000 2995 2992 2990 2989 2987 2986 2986 2986 2985 2986 2988 2992 2998 3001 3002 3006 3009 3014 3018 3024 3026 3029 3032 3034 3035 3037 3037 3038 3039 3037 3039 3039 3039 3039 3038 3036 3032 3031 3026
3062 3050 3041 3031 3022 3015 3010 3003 2999 2995 2991 2989 2988 2986 2984 2984 2985 2985 2986 2988 2990 2992 2998 3006 3008 3012 3015 3021 3024 3028 3031 3034 3034 3035 3036 3037 3035 3037 3037 3038 3037 3037 3035 3031 3025 3026 3023
3064 3053 3042 3033 3024 3018 3012 3006 3001 2998 2994 2991 2988 2986 2984 2984 2983 2983 2984 2984 2989 2991 3000 3006 3010 3013 3018 3023 3026 3028 3031 3032 3033 3034 3035 3035 3037 3036 3036 3036 3036 3034 3031 3028 3026 3019 3016
3068 3057 3045 3036 3026 3019 3013 3007 3002 2998 2996 2993 2989 2986 2983 2982 2984 2983 2983 2986 2988 2994 3001 3008 3010 3015 3018 3022 3026 3028 3030 3033 3033 3034 3035 3035 3034 3034 3034 3032 3034 3030 3029 3026 3023 3021 3014
3071 3062 3051 3040 3029 3021 3015 3008 3003 2997 2995 2994 2992 2989 2987 2986 2986 2987 2991 2989 2991 2994 2998 3010 3011 3014 3019 3024 3027 3027 3029 3031 3032 3033 3035 3034 3033 3032 3031 3030 3030 3026 3027 3024 3021 3017 3013
3073 3067 3057 3046 3035 3024 3017 3011 3005 2999 2994 2994 2994 2992 2990 2991 2992 2992 2991 2992 2995 2999 3005 3012 3013 3017 3021 3024 3026 3026 3029 3031 3031 3031 3031 3031 3031 3030 3027 3028 3027 3026 3022 3018 3014 3011 3008
3076 3070 3063 3053 3042 3031 3021 3014 3008 3003 2999 2997 2995 2996 2994 2995 2995 2996 2996 2997 2998 3001 3012 3017 3017 3019 3023 3025 3026 3028 3030 3030 3031 3032 3030 3029 3028 3027 3026 3024 3024 3024 3022 3016 3011 3006 3002
3080 3075 3069 3061 3051 3040 3031 3021 3014 3010 3008 3005 3003 3001 3001 3000 3000 2999 2999 3000 3001 3011 3011 3015 3019 3023 3025 3027 3029 3029 3030 3030 3030 3030 3029 3028 3028 3026 3026 3025 3024 3021 3020 3017 3011 3005 3002
3084 3078 3073 3066 3059 3050 3040 3032 3024 3020 3017 3013 3012 3012 3010 3009 3007 3005 3005 3003 3011 3015 3018 3020 3024 3026 3028 3029 3029 3030 3030 3030 3029 3029 3030 3028 3027 3027 3026 3024 3023 3020 3017 3015 3011 3006 3004
3085 3081 3077 3072 3065 3059 3050 3042 3037 3030 3028 3025 3024 3020 3018 3015 3012 3010 3008 3010 3018 3021 3023 3025 3026 3028 3029 3030 3030 3030 3031 3032 3031 3030 3029 3030 3029 3027 3026 3024 3023 3020 3018 3014 3010 3008 3002
3088 3083 3079 3076 3071 3064 3059 3051 3045 3040 3036 3034 3034 3030 3027 3023 3022 3020 3015 3021 3025 3027 3027 3029 3030 3030 3031 3031 3031 3031 3032 3032 3031 3031 3030 3029 3031 3031 3027 3024 3022 3021 3016 3014 3012 3009 3007
3091 3084 3081 3076 3073 3069 3063 3059 3053 3048 3044 3041 3038 3035 3034 3031 3028 3024 3025 3027 3030 3032 3032 3033 3034 3034 3034 3033 3034 3034 3034 3033 3032 3032 3032 3031 3030 3028 3027 3025 3022 3022 3018 3013 3012 3010 3008
3092 3087 3081 3078 3073 3071 3067 3063 3058 3054 3049 3045 3042 3039 3037 3034 3031 3030 3031 3032 3034 3036 3036 3037 3037 3037 3036 3036 3037 3037 3036 3035 3034 3034 3032 3032 3030 3027 3024 3026 3024 3020 3016 3010 3010 3010 3009
3094 3089 3083 3078 3076 3072 3069 3064 3062 3057 3053 3048 3044 3042 3040 3036 3035 3035 3036 3037 3037 3039 3039 3040 3040 3040 3040 3038 3038 3039 3038 3036 3034 3034 3033 3032 3031 3028 3030 3030 3027 3021 3015 3009 3009 3009 3014
3094 3089 3085 3080 3075 3072 3068 3064 3062 3059 3055 3052 3047 3045 3042 3039 3038 3039 3039 3040 3040 3040 3041 3042 3043 3043 3043 3042 3042 3041 3040 3039 3037 3035 3034 3034 3033 3032 3031 3031 3030 3026 3020 3017 3013 3014 3015
3095 3089 3083 3080 3075 3072 3068 3065 3061 3059 3056 3054 3050 3048 3045 3043 3041 3042 3043 3042 3042 3043 3044 3044 3045 3045 3046 3044 3045 3043 3041 3040 3039 3037 3036 3036 3036 3034 3033 3033 3031 3031 3029 3026 3023 3023 3022
3094 3089 3083 3078 3075 3071 3068 3063 3060 3057 3056 3053 3051 3050 3048 3046 3045 3045 3046 3045 3045 3045 3046 3046 3047 3046 3047 3047 3047 3045 3043 3042 3041 3041 3038 3037 3036 3036 3034 3033 3033 3033 3032 3032 3029 3029 3030
3091 3088 3083 3077 3073 3069 3067 3063 3059 3057 3054 3052 3050 3049 3047 3046 3045 3045 3045 3046 3047 3047 3047 3048 3048 3048 3049 3048 3049 3047 3044 3044 3042 3042 3040 3039 3037 3037 3036 3034 3037 3035 3034 3034 3034 3033 3032
3091 3086 3082 3076 3071 3068 3066 3063 3060 3057 3054 3052 3050 3048 3047 3045 3043 3044 3045 3046 3046 3047 3047 3048 3049 3049 3049 3048 3048 3047 3046 3045 3044 3042 3040 3039 3038 3037 3036 3034 3036 3035 3035 3034 3034 3035 3033
3090 3084 3081 3076 3069 3067 3066 3063 3060 3058 3056 3052 3052 3048 3046 3045 3045 3043 3044 3046 3047 3047 3048 3048 3049 3049 3049 3049 3048 3047 3046 3045 3044 3042 3041 3039 3038 3038 3036 3035 3034 3033 3033 3034 3035 3034 3034
3086 3082 3078 3076 3070 3066 3065 3061 3059 3058 3055 3054 3051 3050 3048 3046 3045 3046 3046 3046 3047 3048 3048 3048 3048 3049 3049 3049 3049 3047 3046 3045 3043 3041 3040 3039 3038 3037 3036 3035 3031 3030 3031 3032 3034 3035 3031
3082 3080 3074 3074 3070 3065 3064 3060 3058 3057 3055 3054 3052 3051 3051 3049 3048 3047 3047 3047 3047 3046 3047 3048 3049 3047 3048 3048 3048 3047 3045 3044 3042 3040 3039 3039 3038 3036 3035 3034 3032 3030 3030 3032 3032 3031 3031
3078 3076 3072 3070 3070 3065 3061 3059 3056 3055 3054 3052 3050 3049 3049 3050 3049 3047 3047 3046 3047 3047 3047 3046 3046 3046 3046 3046 3046 3044 3043 3042 3040 3039 3037 3037 3036 3035 3034 3030 3029 3028 3029 3029 3029 3029 3030